Wind_Speed
55 57 58 58 59 60 60 60 61 57 47 45 49 51 51 46 51 59 56 54 54 55 55 53 50 49 45 39 38 40 37 35 32 29 27 27 27 27 24 24 23 21 21 19 18 17 17 15 13 10 7 5 4 3 3 4 6 6 6 6 6 7 6 7 8 9 9 10 10 11 12 13 14 14 15 15 14 13 13 14 14 15 16 17 18
57 58 60 60 61 60 60 61 60 57 50 43 43 50 48 40 46 56 55 52 52 53 53 50 47 46 45 40 39 43 41 37 35 31 29 28 29 28 25 24 23 22 22 21 20 19 18 16 14 11 8 6 4 3 4 5 6 6 6 6 7 7 7 8 9 9 10 10 11 11 12 13 14 14 15 15 15 15 14 15 15 16 16 17 18
59 61 63 63 63 61 60 61 59 56 53 49 46 47 47 41 42 51 55 53 51 52 50 48 47 45 46 44 41 43 42 40 39 36 32 30 30 28 26 24 24 24 24 22 20 20 19 18 16 14 11 9 6 4 5 6 7 7 6 7 7 8 8 9 10 10 10 11 11 12 12 13 13 14 15 15 15 16 15 15 16 17 17 18 19
59 62 65 66 65 63 61 61 59 58 55 52 49 44 43 42 40 46 54 54 52 51 49 48 48 47 48 47 44 42 42 41 40 39 36 32 30 28 25 24 24 25 25 22 21 21 21 19 18 16 14 12 8 6 5 6 7 7 7 7 7 8 9 10 11 11 11 11 12 12 13 13 13 14 15 14 15 16 16 16 17 18 18 18 18
56 60 65 67 67 65 64 63 62 62 60 56 50 43 40 41 40 41 48 55 53 49 49 49 49 49 50 50 48 44 40 39 38 37 36 33 30 28 25 25 25 26 24 22 21 21 22 21 19 17 16 15 11 7 6 6 7 7 7 7 7 8 9 11 11 11 11 12 13 13 14 13 13 14 15 14 15 15 15 16 17 18 18 18 18
53 56 61 66 68 67 66 66 64 65 67 66 59 50 43 41 42 40 41 50 53 50 51 52 51 51 51 51 51 46 38 35 35 36 36 32 30 29 27 27 26 25 23 22 21 21 22 22 19 17 17 16 13 8 6 6 6 6 6 7 8 9 10 11 11 11 12 13 13 14 15 14 13 14 14 14 15 15 14 15 16 17 18 18 17
51 53 56 61 66 68 68 68 67 67 70 73 70 63 52 44 42 41 39 43 48 49 52 53 53 53 49 49 53 49 41 36 34 37 38 34 32 32 29 28 27 25 24 22 20 21 22 22 21 18 17 17 13 9 7 6 5 5 5 6 7 9 10 11 11 11 12 12 13 15 15 14 14 14 14 14 14 14 14 14 15 17 17 17 18
51 52 53 57 61 65 68 69 69 70 70 73 71 65 59 49 42 41 42 42 43 45 48 48 50 53 49 49 55 52 44 39 35 37 40 37 36 34 30 29 27 25 25 22 21 20 21 22 22 20 19 18 14 9 7 6 5 4 4 5 7 8 10 11 11 11 12 12 13 15 15 14 14 14 13 13 13 13 13 13 15 16 17 17 18
51 52 52 54 57 61 65 68 70 71 70 71 67 61 60 56 48 45 46 45 42 42 45 45 47 52 50 48 52 50 43 40 36 37 40 39 38 35 32 31 28 26 26 23 21 20 20 21 24 23 22 20 16 10 8 7 5 4 3 5 6 8 9 10 11 11 12 12 14 15 15 15 15 14 14 13 13 12 12 13 14 16 17 17 18
50 53 53 52 54 58 62 65 69 71 69 69 65 58 59 61 55 50 50 50 46 44 47 48 48 51 50 45 45 44 41 39 37 36 39 41 39 36 34 32 29 28 28 25 21 20 20 20 23 26 25 23 19 14 11 8 7 5 4 5 6 7 8 10 11 11 12 12 14 15 15 15 15 14 14 13 12 12 12 12 14 16 17 17 17
44 52 55 54 53 54 59 62 66 69 69 68 65 61 60 62 60 56 54 54 50 47 50 53 53 53 50 46 42 40 41 40 39 38 40 41 40 38 36 34 31 31 30 27 22 20 20 20 22 27 28 26 22 17 14 11 9 7 5 6 7 8 8 9 10 11 12 12 13 14 15 15 15 14 13 13 12 11 12 12 13 15 16 17 17
40 45 52 56 55 54 56 58 61 65 68 69 66 64 63 63 62 60 59 57 52 47 49 52 55 55 51 49 46 41 41 41 41 41 41 42 41 38 38 36 34 33 32 28 23 21 20 19 20 26 29 29 25 20 17 14 11 9 8 8 8 9 9 10 11 11 12 13 13 14 15 15 15 14 14 13 12 12 12 11 12 14 15 16 16
39 41 46 52 56 56 55 57 57 58 62 67 68 67 65 64 64 63 62 60 53 47 47 47 49 52 51 50 50 46 43 42 41 41 41 43 43 39 38 37 36 35 33 29 25 24 22 20 19 23 30 31 28 24 20 16 13 11 10 9 10 10 11 11 12 12 12 13 13 14 15 15 15 15 14 13 13 13 12 11 12 13 14 15 15
41 41 42 46 52 56 56 56 57 57 57 62 68 69 68 66 65 64 63 62 55 47 45 42 42 48 49 49 51 49 47 45 42 41 40 43 44 42 40 39 38 36 34 31 29 26 24 22 21 24 31 35 32 28 24 19 16 14 13 12 11 11 12 13 13 13 13 13 14 14 15 15 15 15 14 13 13 13 12 11 12 13 13 14 14
42 43 43 43 46 51 55 57 57 57 57 59 65 69 70 68 67 66 64 62 57 51 48 44 43 48 50 47 48 47 48 47 45 43 43 44 45 44 42 41 40 38 36 34 31 27 25 24 23 26 32 37 35 31 27 22 18 17 16 16 14 13 13 14 14 14 14 14 14 15 15 16 15 16 15 14 13 13 13 12 12 12 13 13 14
44 46 45 44 44 45 50 54 57 58 58 59 62 67 70 70 68 68 65 62 57 53 52 47 45 50 52 49 48 47 48 48 46 46 46 47 46 45 46 45 42 40 39 36 32 28 26 25 25 27 32 39 38 33 28 23 20 19 19 19 17 15 14 15 15 15 14 14 14 15 15 16 16 16 17 16 15 14 14 13 12 12 13 14 13
46 47 47 46 44 43 45 49 54 58 58 59 60 64 69 71 70 69 67 63 58 53 50 47 46 51 52 51 51 52 52 51 49 47 48 48 47 47 48 47 44 43 41 37 33 30 28 27 26 27 31 39 39 33 28 23 22 21 20 20 19 17 15 15 15 15 15 14 14 15 16 16 16 17 17 17 16 16 15 14 13 13 13 14 14
49 49 49 47 44 42 42 45 50 55 58 59 60 62 67 70 70 69 67 64 60 56 52 50 50 51 51 52 53 53 53 52 51 50 51 52 50 47 49 48 46 44 41 37 34 33 31 29 27 26 28 37 38 32 28 24 22 22 22 21 21 19 16 16 16 16 15 15 15 15 16 16 16 17 18 18 18 17 17 16 15 15 15 15 15
49 49 49 49 46 42 41 42 46 52 56 59 61 62 65 68 69 70 68 65 63 60 57 54 53 53 52 52 51 49 49 50 51 53 55 58 57 52 50 49 47 46 42 38 36 36 34 31 28 25 26 34 37 33 29 26 24 23 23 22 22 20 17 16 16 16 16 16 15 15 16 16 16 17 17 17 18 18 17 17 16 16 16 16 16
46 48 48 49 48 45 41 39 42 49 55 58 61 62 63 65 68 69 69 68 66 64 63 60 57 56 55 53 50 47 47 49 53 57 59 61 60 55 52 51 49 46 43 41 40 40 37 34 31 27 25 30 35 34 30 28 26 25 24 23 22 20 19 17 16 16 17 17 16 16 16 16 16 17 17 17 17 17 17 17 17 16 16 17 16
42 45 46 47 48 47 43 38 37 42 51 57 60 62 63 64 66 68 69 70 68 67 68 67 64 62 59 56 52 48 47 50 55 60 62 61 57 51 49 49 48 45 44 44 44 43 40 37 35 31 27 27 30 32 31 29 27 26 24 23 22 21 20 18 17 17 17 17 17 17 17 16 16 16 16 16 16 16 17 17 17 17 17 18 17
38 43 45 46 47 47 45 40 35 35 43 53 59 62 63 63 65 67 70 72 71 69 71 73 73 71 65 59 55 52 50 52 55 57 57 56 54 49 46 45 45 45 46 48 48 46 43 40 37 35 31 29 29 30 30 29 28 26 24 23 22 22 21 19 18 18 18 18 18 18 18 17 16 16 16 16 15 16 16 17 17 18 18 19 18
35 41 44 44 45 46 45 41 36 32 35 46 56 61 63 64 64 65 68 72 74 72 72 75 78 76 70 65 61 58 56 55 55 54 52 52 52 49 46 44 44 45 49 51 50 49 46 42 40 38 35 33 31 30 30 29 28 27 25 24 23 23 22 21 20 20 20 19 18 19 19 18 17 17 17 16 16 15 16 16 17 17 18 19 18
34 39 42 43 43 44 45 42 39 34 32 38 49 57 62 64 64 64 66 71 75 76 74 76 79 75 69 68 66 62 59 58 55 52 49 49 50 49 48 45 43 45 50 53 52 51 48 44 41 40 38 35 34 32 31 30 29 28 27 26 25 24 23 22 22 22 22 21 19 19 19 18 18 18 17 17 16 15 15 15 16 16 17 18 18
34 36 39 41 42 42 43 43 40 37 33 34 42 51 58 63 63 63 64 67 74 79 78 76 77 75 72 72 71 64 60 58 54 48 45 46 47 47 47 45 43 45 50 52 52 51 49 45 43 42 40 38 36 35 33 32 31 31 30 29 27 25 24 23 23 24 23 22 21 20 19 18 18 18 18 17 17 16 15 15 15 16 16 17 18
34 34 34 37 39 39 40 41 41 39 35 34 38 45 53 60 63 63 62 64 70 78 81 80 78 77 76 76 74 69 64 60 57 52 49 49 49 48 47 45 43 45 51 53 53 53 51 47 45 44 42 41 40 38 37 35 35 35 35 33 30 28 26 25 25 26 25 23 22 21 20 19 19 19 18 18 17 16 16 15 15 15 16 17 18
26 28 28 31 35 36 37 39 40 40 38 36 37 41 48 56 61 61 60 61 66 72 78 81 81 80 80 79 76 72 67 62 59 58 56 54 53 52 50 47 45 47 53 56 55 54 53 50 47 46 45 44 43 42 40 38 39 39 38 36 34 30 28 28 27 27 26 25 24 23 21 20 20 20 19 18 18 17 16 16 16 15 15 17 19
14 18 21 24 30 33 35 37 39 40 39 38 38 39 44 51 57 60 59 59 63 68 73 77 80 82 82 81 77 73 70 66 61 60 62 60 57 55 53 50 48 48 52 58 59 57 56 53 50 49 49 47 46 45 43 41 42 42 41 39 37 33 31 30 30 29 28 26 26 25 24 22 21 21 20 20 19 18 17 16 16 15 15 17 18
11 14 17 21 25 29 32 34 35 37 38 38 38 40 42 47 54 58 58 57 60 65 68 70 75 80 81 80 78 75 74 73 66 62 64 65 60 58 56 53 51 49 50 56 60 60 58 56 53 53 52 51 50 48 45 43 44 45 43 42 40 37 34 33 32 31 29 28 27 27 26 24 22 21 21 21 21 20 18 17 16 15 16 17 18
12 14 17 19 21 24 27 29 31 34 36 37 37 39 41 45 50 55 56 56 58 62 64 65 69 74 77 78 78 77 76 75 70 64 64 65 63 61 59 58 56 54 52 54 58 61 61 60 58 57 56 54 53 51 48 45 46 47 45 44 43 40 37 35 35 33 31 29 29 29 28 26 24 23 22 23 23 22 20 18 17 16 16 17 18
14 16 18 19 21 23 25 27 30 32 34 36 37 38 39 43 48 53 55 55 56 59 60 60 63 68 70 73 76 75 74 74 71 65 63 64 64 63 62 61 59 57 54 55 59 62 63 63 62 61 61 58 55 54 51 48 49 50 48 46 45 43 41 38 37 36 32 31 31 30 29 27 25 24 23 23 24 24 23 20 18 17 17 17 18
18 20 21 23 25 27 28 29 30 31 33 34 36 36 38 41 45 50 54 54 54 56 56 55 58 62 63 65 70 71 70 69 66 62 62 63 62 63 63 62 61 60 58 58 60 61 63 65 63 61 61 59 57 57 54 50 51 52 51 49 47 47 44 41 40 38 35 33 32 31 30 28 26 25 25 24 25 26 25 22 19 18 18 18 19
19 22 24 26 29 31 32 33 33 33 33 34 35 35 37 41 44 47 53 55 53 53 54 53 54 57 57 58 63 67 67 67 63 57 58 62 62 62 64 64 63 63 62 61 62 61 62 65 64 61 59 57 57 59 56 52 52 54 54 53 51 49 48 45 43 41 38 35 34 32 30 27 26 26 26 25 25 27 27 24 21 19 19 19 19
19 21 23 25 27 29 32 34 35 35 34 33 34 35 36 39 43 45 49 54 54 52 52 52 52 53 52 52 56 60 63 67 68 61 57 59 62 64 65 65 64 65 64 64 63 62 62 62 63 63 61 56 55 58 58 55 55 57 57 56 54 52 50 48 46 44 41 38 35 34 31 28 26 26 26 26 26 27 28 26 23 21 21 20 20
19 19 19 20 22 24 26 29 32 35 35 33 34 35 35 38 42 45 47 51 55 54 52 53 53 53 52 50 52 55 58 63 68 67 61 58 59 64 67 66 66 66 66 66 65 64 63 61 61 62 62 58 55 56 58 58 57 57 58 57 56 55 53 51 49 46 43 41 38 36 33 30 28 27 27 27 28 28 28 27 25 24 23 21 21
19 17 16 16 18 19 20 21 25 31 33 33 33 34 35 38 41 45 46 48 53 55 54 54 54 54 54 53 51 52 57 61 62 64 64 60 58 62 66 67 68 68 68 67 67 65 63 61 61 60 60 59 58 57 57 57 57 57 58 58 57 57 55 52 50 48 46 43 41 38 36 33 30 28 28 28 29 29 29 28 26 26 25 22 22
18 16 15 16 16 15 15 15 18 25 29 31 32 33 35 38 41 44 46 47 50 54 56 56 55 54 55 56 54 52 55 61 62 62 63 60 57 59 65 67 68 68 68 68 67 65 63 61 61 60 60 60 59 57 57 56 54 55 58 58 57 57 56 54 52 51 48 46 43 41 39 36 33 30 29 29 31 31 30 28 28 27 26 24 23
17 17 16 15 14 13 11 12 15 20 25 28 31 32 33 37 42 45 46 47 47 49 53 55 56 55 55 57 57 54 53 59 63 63 64 63 59 60 63 65 65 66 67 67 67 66 64 63 61 61 61 59 57 56 56 56 55 56 58 59 57 57 56 55 54 53 50 48 45 43 41 39 35 33 31 31 32 32 31 30 29 28 27 25 25
15 16 17 15 14 12 11 11 14 17 21 24 27 30 32 36 43 46 47 47 48 48 49 52 54 56 56 57 59 57 55 57 61 64 66 66 65 63 63 64 63 64 65 66 67 66 65 64 62 61 60 59 55 54 55 56 57 59 61 60 58 57 56 54 54 52 51 50 48 45 43 42 38 35 34 33 33 33 33 32 31 29 27 26 28
16 13 16 15 14 13 13 12 14 15 18 21 24 27 30 34 41 46 47 47 47 47 48 49 51 54 56 57 58 60 58 58 61 64 65 67 67 67 66 64 63 63 64 64 66 66 64 63 63 62 61 59 55 53 54 54 54 57 60 61 60 59 56 54 53 52 51 51 51 48 46 44 41 38 37 35 35 35 35 34 33 29 27 28 30
18 13 14 16 13 13 13 13 14 16 17 19 22 25 28 31 36 44 48 47 45 45 46 47 49 51 53 55 57 59 59 59 60 64 67 68 69 69 70 68 65 64 63 63 64 66 65 64 64 63 61 60 57 54 53 53 52 52 54 57 61 61 58 53 53 53 51 50 52 51 49 48 45 42 40 38 38 38 38 37 34 30 28 29 31
18 15 12 14 13 11 12 12 13 14 16 19 21 23 26 29 33 39 45 48 47 45 45 46 48 50 51 53 55 57 59 59 60 63 68 70 71 71 71 71 69 67 65 63 63 65 67 67 66 65 62 60 59 57 55 55 54 52 50 51 55 60 59 55 53 53 51 50 52 53 52 51 49 47 44 41 41 41 41 40 36 33 31 31 31
15 16 12 10 11 11 11 12 12 12 14 17 21 24 26 28 31 35 40 44 47 47 46 46 47 49 50 52 53 55 58 58 59 62 65 69 72 73 72 71 71 69 68 65 62 63 67 68 67 66 63 60 59 58 58 57 55 53 51 49 49 53 56 56 55 53 50 48 49 52 54 54 52 51 47 45 45 45 44 42 40 36 34 32 32
13 12 13 10 9 11 11 12 13 13 13 14 17 22 26 28 31 33 36 40 44 47 47 46 46 48 49 51 53 55 57 58 59 61 64 66 70 72 72 71 70 70 69 66 62 61 64 68 68 65 62 60 58 57 58 58 56 53 52 51 50 51 51 52 53 51 47 45 45 48 53 57 57 54 51 49 49 49 47 46 44 41 37 34 32
14 10 12 12 9 9 11 13 14 14 14 15 16 18 23 27 31 34 36 38 42 45 48 48 48 49 50 52 54 56 57 57 58 60 62 64 67 69 70 70 69 69 69 68 64 59 60 65 68 66 62 61 60 58 58 58 57 56 54 53 54 53 51 50 49 48 48 47 46 46 52 59 61 58 54 52 53 52 50 49 48 45 40 36 34
16 11 8 8 8 8 9 12 15 15 15 16 16 17 19 23 27 32 36 39 41 44 47 49 51 52 52 52 54 57 58 58 59 59 59 61 63 65 66 66 67 67 67 69 69 65 62 63 65 65 63 62 62 61 60 58 57 57 56 55 55 55 54 52 51 51 50 49 48 47 51 58 63 62 58 55 53 53 52 53 52 48 42 37 35
18 14 10 7 5 6 8 11 12 13 15 17 19 19 20 21 24 27 32 38 42 44 47 49 51 53 54 54 55 57 59 60 60 59 58 58 60 61 62 63 63 63 63 66 69 70 69 69 68 68 66 63 61 61 61 60 58 57 56 55 54 54 54 54 54 54 52 50 50 50 51 57 64 65 61 57 55 54 54 55 54 50 44 39 38
16 16 14 13 10 5 4 6 9 8 9 11 15 20 21 22 23 25 27 31 37 41 45 48 50 51 53 56 57 58 60 61 61 59 57 56 57 58 58 59 59 59 59 61 64 67 69 70 71 71 70 65 60 57 58 58 58 56 54 52 52 52 52 53 53 53 52 52 53 53 53 56 62 65 63 59 57 55 54 55 55 52 46 43 41
14 14 14 15 15 12 9 8 9 10 11 10 5 13 20 23 24 25 27 28 30 34 38 42 46 48 50 54 58 59 60 61 60 57 55 54 54 54 55 56 56 56 57 59 62 65 65 66 67 68 70 69 62 56 55 56 55 53 51 49 51 52 52 52 52 51 53 55 57 57 55 56 59 63 63 61 59 57 55 54 55 54 50 46 44
16 15 15 15 15 16 15 14 12 10 10 12 10 4 9 16 19 23 28 30 29 30 31 33 36 40 43 47 53 57 58 59 58 55 53 53 53 53 53 54 54 54 56 59 62 63 63 64 64 64 66 68 64 58 56 56 54 53 51 49 50 52 53 53 53 54 56 58 58 58 56 54 55 57 61 64 62 59 56 55 55 55 52 48 44
17 17 17 17 16 16 17 17 15 12 9 9 11 10 6 3 6 12 23 31 31 30 30 29 30 32 35 41 47 52 55 56 57 56 55 53 52 51 52 53 53 54 56 58 60 61 60 59 60 59 61 64 63 60 58 56 54 53 53 52 50 50 50 51 53 55 57 57 56 57 58 57 55 55 60 65 66 61 57 57 56 56 55 52 48
Wind_Direction
228 230 231 230 229 227 228 226 222 227 228 223 229 221 207 207 208 207 206 204 206 209 212 214 214 217 220 221 221 218 214 213 207 201 203 208 216 220 220 223 228 233 236 234 231 232 234 236 239 238 230 228 236 248 272 285 290 294 298 298 294 293 294 293 290 287 285 284 285 288 293 301 304 306 308 309 309 309 309 312 315 318 319 319 318
228 229 231 230 230 229 229 227 223 224 226 223 220 217 214 210 205 206 207 205 207 210 213 216 215 217 220 220 220 219 215 210 204 200 203 207 215 220 220 222 226 232 235 234 231 230 231 231 232 232 228 226 232 245 265 276 282 287 291 290 288 291 293 290 287 286 285 284 283 285 291 297 300 301 303 305 306 307 310 312 314 317 318 318 317
229 228 230 229 229 230 230 229 224 220 222 222 217 217 220 215 209 210 209 206 206 209 212 215 216 217 220 219 219 218 215 210 204 199 201 204 210 217 218 219 224 230 235 236 233 230 229 228 227 228 229 233 236 241 259 273 278 283 286 286 288 290 292 290 287 285 284 284 282 283 287 290 293 296 296 299 301 302 305 309 313 316 317 317 317
230 228 230 230 228 228 230 230 226 218 215 215 213 214 217 218 217 214 212 211 208 208 212 216 217 218 220 218 217 216 214 214 211 202 200 201 205 213 217 218 222 229 234 238 237 233 230 227 226 228 232 236 236 235 251 266 274 278 281 284 288 291 294 292 287 285 286 285 283 282 283 284 288 289 290 293 294 296 301 308 313 315 316 315 316
233 229 229 231 229 227 228 230 227 220 214 209 209 213 218 223 222 216 215 215 212 210 214 218 218 220 222 219 216 219 217 217 219 212 204 201 203 211 217 219 221 227 234 237 239 236 232 228 227 229 231 232 229 226 242 256 266 273 279 286 292 295 295 291 288 289 288 285 282 281 280 283 286 285 286 289 289 293 300 306 312 313 312 313 315
235 232 230 231 231 228 227 229 227 223 218 214 216 223 227 227 224 222 219 216 214 214 214 218 219 220 224 223 221 222 219 218 225 220 205 198 203 210 217 221 223 227 232 235 238 238 234 228 224 228 230 227 221 219 234 249 261 272 281 292 299 298 294 291 291 290 287 285 283 281 281 283 284 282 284 287 287 290 296 303 308 309 309 311 314
236 234 231 231 232 230 227 227 228 227 225 224 226 230 232 228 224 226 228 224 221 218 215 216 218 218 221 222 221 221 216 214 222 217 202 195 202 208 215 221 223 227 230 232 235 238 237 227 219 223 227 222 216 215 230 246 260 273 286 297 301 299 295 293 292 289 286 286 283 281 283 285 284 282 282 283 285 289 294 301 307 308 310 312 314
236 236 234 232 232 232 229 228 228 229 231 232 233 233 233 230 225 227 231 231 228 223 218 217 219 219 218 216 216 216 210 208 211 209 202 198 201 206 213 220 222 227 230 231 233 238 241 228 216 219 224 221 215 214 230 245 259 278 294 301 300 298 296 294 292 291 288 286 284 284 286 287 286 285 285 285 285 288 296 303 308 310 311 313 316
235 236 236 235 234 232 230 229 229 231 233 235 235 233 231 229 227 227 230 231 231 229 224 220 220 221 219 212 211 211 205 204 207 207 205 202 202 205 213 220 223 228 232 233 233 237 242 232 218 218 223 222 218 218 230 242 250 269 298 303 302 300 296 296 295 294 291 288 286 286 288 289 289 290 291 289 287 288 296 305 311 312 312 314 318
235 235 236 237 237 235 232 230 230 231 233 235 234 231 228 227 227 227 229 231 232 233 230 224 219 216 213 207 206 208 206 206 208 209 208 205 202 204 212 220 224 229 234 236 235 237 242 237 222 218 221 222 221 221 225 235 242 252 288 303 306 307 302 300 300 298 295 291 288 288 290 291 292 294 294 291 288 290 296 306 313 314 315 317 319
241 238 236 236 237 237 234 231 230 231 232 233 233 231 227 226 225 225 228 230 231 235 235 227 217 212 212 211 210 212 213 212 210 208 210 210 205 203 209 218 223 228 234 237 238 239 241 242 229 221 221 222 224 225 224 232 240 246 269 295 306 311 310 308 307 304 298 293 291 292 293 294 295 296 294 291 290 292 297 307 315 316 318 319 321
247 243 240 237 235 237 237 234 232 232 232 232 231 231 229 227 225 225 227 228 230 236 235 226 217 213 216 220 220 219 217 217 213 208 210 215 212 206 208 215 221 226 232 236 241 242 240 244 237 226 222 224 227 228 227 231 239 246 258 279 296 305 311 311 311 309 303 299 297 296 296 297 298 296 294 294 293 295 300 308 315 318 319 320 322
247 246 244 241 237 236 236 235 234 233 232 231 230 230 231 229 226 225 227 227 228 234 232 225 220 216 218 222 222 222 221 221 220 214 212 216 216 212 210 215 220 224 229 234 240 244 241 243 243 231 224 225 229 230 229 231 237 246 255 268 285 296 305 309 311 311 308 307 304 301 301 300 299 297 295 295 295 297 301 307 314 317 320 321 322
247 245 244 244 240 237 235 235 234 233 232 230 228 228 229 230 228 225 227 227 228 230 226 224 225 220 219 222 222 223 223 222 224 223 221 221 221 217 213 215 220 224 227 230 235 241 242 243 245 238 226 223 228 232 231 231 235 245 256 266 277 288 298 305 310 312 312 313 310 306 305 303 301 298 295 294 294 296 301 307 313 317 320 322 322
247 245 244 243 242 239 236 234 233 232 232 230 228 228 227 228 229 226 227 228 229 229 225 227 234 226 218 218 220 221 221 221 223 226 227 228 226 222 216 215 219 224 226 227 231 236 242 244 249 250 234 222 224 230 230 231 237 247 258 264 271 280 292 301 307 311 313 315 314 311 308 307 305 301 298 299 298 298 302 308 314 318 321 321 319
246 245 244 242 242 240 238 236 233 231 230 230 228 228 226 226 228 228 229 230 231 232 232 235 237 225 217 217 219 220 221 222 223 226 229 231 230 226 221 216 216 221 224 226 229 233 240 245 252 258 240 220 220 227 229 233 240 249 258 263 267 274 285 296 303 308 311 315 315 314 313 311 308 304 303 304 302 301 304 308 311 316 318 318 316
244 244 243 243 242 241 239 237 235 231 229 229 228 228 226 224 225 228 231 230 230 232 234 236 230 219 217 219 219 219 221 222 223 226 230 232 231 229 225 218 215 218 222 224 227 230 236 242 250 258 240 219 218 225 230 236 243 250 258 261 263 267 276 289 299 304 308 312 315 317 316 314 311 307 305 305 304 303 303 304 306 310 312 313 313
239 240 241 243 244 244 243 239 237 234 230 227 227 228 227 225 223 225 229 229 228 227 228 230 227 220 219 218 216 217 219 219 220 223 228 231 231 230 228 223 218 219 221 223 227 230 233 236 244 254 238 219 219 226 231 237 243 248 254 257 259 262 270 283 292 300 305 309 314 317 317 316 313 308 306 306 306 305 304 303 303 304 306 308 310
235 235 237 240 243 244 245 243 239 236 232 228 226 227 227 226 223 222 225 227 226 224 224 226 225 222 220 216 212 213 214 214 214 218 223 227 227 229 229 228 224 221 221 224 227 230 232 233 237 245 235 220 221 226 231 236 241 245 249 254 256 257 264 276 285 293 300 306 311 313 314 315 313 310 309 309 309 308 305 303 301 303 304 305 308
234 231 233 237 241 243 244 246 243 238 234 229 227 226 226 227 224 221 222 223 224 222 221 222 221 220 219 215 211 211 211 209 209 212 217 220 221 224 226 226 224 221 221 225 227 229 230 230 231 235 233 227 225 228 231 235 239 242 245 249 253 255 259 268 277 285 293 301 306 307 309 311 311 310 311 311 310 308 306 304 303 304 304 304 307
235 230 231 234 238 241 243 245 246 241 235 231 228 226 225 226 225 221 219 220 221 221 220 220 220 219 217 214 214 214 211 207 204 205 209 212 213 213 214 215 215 217 220 224 226 227 228 228 229 229 230 231 230 229 230 233 236 240 243 245 249 252 256 262 269 275 284 293 299 302 305 307 308 309 310 311 310 307 305 305 305 305 305 304 305
236 229 230 233 235 238 241 244 246 244 238 232 229 227 226 226 225 222 219 218 218 220 219 219 220 222 220 218 220 219 214 207 202 202 205 207 206 205 206 208 209 212 218 222 224 225 225 226 227 228 229 231 231 229 229 233 237 239 241 243 246 249 253 257 263 269 276 285 292 297 301 304 305 306 308 309 309 306 305 305 305 305 304 304 305
237 231 229 231 234 236 240 243 246 247 241 234 229 227 227 226 225 223 219 217 216 218 218 217 219 223 224 223 224 222 215 211 209 208 207 206 205 205 206 207 207 210 215 218 221 223 224 224 226 228 230 232 232 230 229 233 238 239 240 241 243 246 250 254 259 264 269 277 284 290 296 300 301 302 304 306 306 305 305 305 304 304 303 302 305
239 233 230 231 234 237 240 242 245 248 246 239 231 228 227 226 226 225 221 218 216 216 217 217 219 222 224 224 224 222 218 217 218 218 216 213 210 208 207 207 206 208 214 216 218 221 223 223 224 227 230 233 233 231 230 232 236 238 239 239 240 243 246 251 256 260 265 270 277 284 289 294 295 297 300 302 302 302 303 304 303 302 302 302 302
242 235 231 232 234 237 240 242 244 247 248 244 235 229 227 226 227 226 223 221 219 217 217 219 220 222 224 224 224 221 220 221 221 222 224 222 218 214 212 210 207 208 213 216 217 220 223 224 224 227 229 232 233 231 229 231 235 236 237 238 239 241 244 248 253 256 261 266 272 278 283 287 289 292 295 299 299 299 299 300 300 300 301 301 300
243 236 231 232 234 237 240 241 243 245 248 249 241 233 228 227 227 227 225 223 222 220 218 220 222 224 226 227 226 223 223 224 225 227 228 224 220 216 215 213 210 210 214 217 218 221 224 225 225 226 228 230 232 232 229 229 233 236 237 239 240 240 242 245 249 254 258 263 268 274 279 282 284 286 289 293 295 295 295 297 299 300 301 301 299
241 234 231 233 235 237 241 243 244 245 247 249 247 238 230 228 227 228 227 225 224 224 222 221 223 226 228 230 228 226 227 229 231 233 231 225 219 215 214 214 212 212 215 218 219 221 224 224 224 226 228 228 230 231 229 228 232 236 239 241 242 241 241 244 247 252 256 260 266 271 275 278 279 280 282 286 290 291 293 296 298 300 301 300 299
229 226 230 235 237 239 241 244 245 244 244 246 248 243 234 229 227 227 228 227 225 226 226 223 223 225 229 231 229 228 230 232 235 235 231 226 220 216 215 216 215 214 214 217 219 220 221 222 224 226 228 227 229 231 230 228 232 237 240 242 243 242 241 243 246 249 253 257 263 268 272 274 276 277 277 279 284 288 291 293 296 299 301 300 299
226 229 235 239 240 241 241 241 241 240 241 243 247 246 239 232 228 227 228 229 228 228 229 227 224 225 228 230 230 229 229 232 236 234 227 223 220 216 215 216 218 219 216 215 217 218 219 221 223 225 227 227 227 230 230 228 232 237 240 241 243 243 241 243 245 248 250 254 260 265 269 272 274 275 275 275 279 285 288 291 293 296 299 300 300
237 238 242 243 243 244 243 242 241 239 240 242 245 246 242 235 230 228 228 230 231 230 231 230 226 225 228 229 229 230 231 232 234 233 227 224 221 217 216 215 217 220 219 216 215 216 218 220 221 222 225 226 226 228 228 226 230 237 240 240 242 242 241 242 244 247 249 252 256 261 265 270 273 275 275 274 276 280 284 288 291 294 297 299 300
250 247 246 245 244 243 243 243 243 241 240 241 243 244 242 237 233 229 228 231 233 232 233 232 228 226 227 229 229 230 231 233 234 234 229 223 220 219 218 216 216 219 220 219 218 219 220 221 220 220 221 223 224 226 226 223 226 235 240 240 241 241 241 241 243 245 247 248 252 256 261 266 272 274 275 275 275 277 279 284 289 291 294 296 298
259 255 252 249 245 244 243 242 242 242 241 241 241 241 240 237 234 231 229 231 235 235 233 232 230 227 226 228 229 229 230 231 232 231 226 221 220 220 219 218 217 217 219 220 222 223 224 224 223 221 220 220 221 223 223 220 223 231 237 239 239 240 240 240 242 243 244 246 249 253 257 262 268 272 274 274 274 274 276 280 285 288 290 292 294
265 263 260 257 253 249 246 244 243 242 242 241 239 238 237 235 234 232 231 231 234 236 234 231 231 228 225 226 228 229 229 226 226 228 226 222 221 221 220 219 218 218 218 219 220 222 224 225 225 224 222 221 220 221 221 217 219 227 233 236 237 238 239 239 240 242 243 244 247 250 253 258 264 269 272 273 273 273 274 276 280 285 287 288 291
268 268 267 265 263 260 253 248 244 242 242 241 239 236 234 233 232 233 232 232 233 235 234 231 230 230 226 224 225 229 229 225 225 230 230 225 222 222 221 220 219 219 220 219 220 221 221 222 224 226 226 224 222 222 220 216 217 224 230 233 235 237 237 238 239 240 241 243 244 247 251 254 260 265 269 271 271 272 274 274 277 280 283 286 289
269 273 276 273 270 268 262 251 242 240 241 240 238 235 231 229 230 231 232 232 233 234 234 232 231 229 226 223 223 225 225 224 225 229 228 225 223 223 222 222 220 220 221 221 222 222 221 221 222 224 227 227 227 226 223 219 218 221 226 231 233 235 235 236 237 238 239 241 242 245 248 251 256 261 265 269 270 271 273 273 274 276 280 284 287
276 284 290 288 280 274 270 259 242 236 238 239 237 234 229 227 227 228 230 232 233 234 234 234 233 230 226 224 224 223 221 220 220 222 223 223 224 223 222 223 222 222 222 222 224 224 223 223 223 223 224 226 227 228 227 224 222 223 226 229 232 233 233 234 236 237 238 239 240 243 246 249 252 257 261 265 268 270 272 273 273 273 277 282 285
281 287 290 291 290 282 274 266 246 234 235 237 236 233 229 226 225 226 228 230 232 234 235 235 235 232 227 226 226 225 223 220 218 218 219 222 225 226 224 223 224 224 224 224 225 226 226 225 225 225 225 225 226 229 230 229 228 228 230 231 232 234 233 233 236 238 239 240 240 241 245 248 250 253 256 261 265 267 269 272 272 272 275 280 283
288 284 282 283 289 287 274 264 252 237 233 234 234 233 229 226 224 225 226 228 229 231 233 235 236 235 231 229 228 226 225 223 221 220 220 223 228 230 227 225 226 228 227 226 226 226 227 227 228 228 228 227 226 228 229 230 231 232 233 233 234 236 236 235 237 239 240 241 241 241 244 247 248 249 252 256 261 265 267 269 270 270 273 278 280
306 285 276 274 281 288 282 265 253 242 235 233 234 234 231 226 223 223 224 226 226 227 229 232 234 235 233 231 230 228 226 225 223 223 223 225 228 229 228 227 227 229 230 229 228 228 228 228 230 231 232 230 228 228 229 229 231 233 235 235 234 235 237 237 239 241 241 243 243 242 243 246 246 248 251 254 257 261 264 265 266 269 272 274 277
329 298 275 270 272 283 288 279 264 251 241 237 236 236 234 228 223 223 224 226 226 226 228 229 232 234 234 233 232 230 228 226 225 225 226 226 226 227 228 228 228 229 230 230 230 231 230 230 231 233 234 232 230 230 231 232 233 234 237 238 236 235 237 239 240 242 242 243 244 243 242 244 246 246 249 252 255 258 260 262 263 267 269 270 272
344 322 280 267 268 278 286 285 277 265 253 244 241 240 238 233 227 225 225 226 227 226 226 227 229 231 232 233 233 233 231 229 226 226 227 228 228 226 226 228 229 230 231 232 232 232 232 231 233 235 235 234 232 232 234 236 236 236 238 240 239 238 238 239 241 244 244 243 245 245 244 244 245 245 247 252 255 257 259 260 261 263 265 266 269
347 336 300 271 269 279 285 284 280 273 263 253 246 243 241 237 231 228 227 227 228 227 225 225 225 227 229 231 232 233 233 231 228 227 227 230 232 231 229 229 229 230 232 234 235 234 232 232 234 236 236 235 234 234 236 238 238 238 238 241 242 242 241 241 242 244 244 243 244 246 245 245 245 246 248 251 255 257 258 259 260 260 261 263 266
359 347 336 297 273 276 285 285 282 277 269 259 251 247 244 240 235 232 230 230 230 230 229 226 225 225 227 229 231 233 234 233 232 229 227 229 232 235 234 232 231 231 232 233 235 235 233 232 234 236 237 237 237 237 238 239 240 241 241 241 243 244 245 245 245 244 243 243 244 246 247 246 246 247 249 252 255 257 258 259 258 258 259 261 264
33 7 1 347 299 280 281 283 284 283 277 268 258 250 246 243 239 235 233 232 232 233 233 232 230 229 229 229 231 233 234 235 235 232 229 228 230 234 237 236 234 232 231 231 234 236 233 231 233 236 237 239 239 240 240 241 242 244 243 242 243 245 247 248 246 243 243 245 246 248 249 248 247 246 248 251 255 257 259 260 259 258 258 260 263
49 33 15 12 351 311 290 280 277 278 277 274 269 259 250 245 241 238 236 235 234 234 235 235 235 235 235 233 233 233 234 235 235 234 231 229 229 232 236 238 236 234 232 231 231 233 232 231 233 236 238 239 241 242 242 242 243 244 244 244 244 245 247 248 248 248 249 250 250 250 250 250 247 245 244 247 253 258 261 260 260 259 259 259 262
41 49 40 24 12 356 329 303 288 279 274 271 270 267 260 251 245 241 238 237 237 236 236 236 236 236 237 236 234 233 233 234 235 234 233 231 231 232 236 239 238 236 234 232 231 232 231 231 233 235 237 239 241 242 243 243 243 244 244 244 245 245 246 248 251 252 254 256 256 254 254 251 247 243 242 244 249 256 259 260 261 262 260 261 262
26 38 46 32 355 335 334 331 318 296 280 273 268 264 264 260 253 246 241 239 239 239 238 238 237 236 236 236 234 232 232 233 234 234 233 232 232 233 236 240 241 239 237 234 233 233 234 235 236 237 238 240 241 243 243 243 244 245 245 246 247 248 248 250 252 254 256 259 261 259 258 253 246 241 239 241 245 251 255 259 262 263 261 260 261
14 20 25 24 16 360 350 10 11 356 329 300 275 264 262 262 259 256 250 244 242 241 240 240 239 236 235 235 233 230 230 232 232 233 232 232 232 234 237 240 242 242 239 236 234 234 235 237 237 238 239 240 242 244 245 243 243 244 245 246 247 248 249 251 253 254 257 259 259 256 255 251 244 240 239 241 244 248 252 256 260 261 259 258 258
4 7 9 12 15 13 6 8 8 4 10 12 322 264 261 262 262 260 256 252 249 245 242 241 240 237 234 233 230 228 228 230 231 231 232 231 232 234 237 240 242 242 241 238 235 234 235 236 237 237 237 237 240 244 245 242 241 242 243 244 244 244 245 247 249 250 252 253 253 252 251 249 246 242 240 241 244 248 251 254 258 259 258 255 256
354 356 357 359 2 2 359 1 1 356 2 17 25 350 266 264 267 264 258 255 253 251 249 245 240 236 233 230 227 225 227 229 230 231 232 232 232 234 237 239 241 241 241 239 237 235 236 237 237 237 236 236 239 242 242 240 239 239 239 240 242 242 242 244 245 246 248 250 252 251 251 251 250 248 244 242 244 247 250 252 255 256 256 255 256
354 352 350 349 350 351 351 352 353 356 1 6 16 30 32 324 302 281 263 255 250 249 251 251 245 237 231 228 226 225 226 228 230 231 233 232 232 233 236 238 240 241 241 240 239 238 238 238 238 237 237 237 239 241 240 239 239 239 239 241 242 242 242 243 244 246 249 252 253 254 253 252 253 255 251 244 242 246 249 250 252 253 254 256 257
Height
5727 5729 5732 5735 5738 5742 5745 5748 5753 5758 5761 5762 5765 5769 5770 5773 5775 5777 5779 5782 5785 5790 5794 5798 5802 5805 5809 5814 5818 5821 5823 5825 5828 5830 5833 5836 5839 5842 5845 5847 5848 5850 5851 5853 5854 5855 5857 5858 5859 5859 5859 5859 5859 5859 5859 5859 5859 5858 5858 5858 5857 5856 5856 5856 5855 5855 5854 5854 5854 5854 5853 5852 5851 5850 5849 5848 5848 5849 5848 5847 5846 5845 5844 5843 5841
5722 5725 5726 5730 5733 5736 5740 5743 5749 5755 5758 5759 5762 5766 5768 5770 5771 5772 5774 5777 5781 5786 5792 5797 5801 5804 5807 5811 5815 5817 5819 5822 5823 5826 5829 5832 5836 5840 5843 5845 5847 5848 5849 5851 5852 5853 5854 5856 5857 5857 5858 5858 5858 5858 5858 5857 5857 5857 5857 5856 5856 5855 5855 5855 5854 5854 5854 5853 5853 5853 5852 5851 5850 5849 5848 5847 5846 5846 5846 5845 5844 5843 5842 5841 5840
5717 5719 5720 5723 5727 5731 5735 5738 5745 5750 5753 5756 5759 5762 5765 5766 5766 5768 5770 5772 5776 5781 5788 5793 5797 5801 5804 5808 5810 5812 5815 5818 5818 5819 5823 5828 5832 5837 5841 5844 5845 5846 5847 5848 5850 5851 5852 5854 5855 5856 5857 5857 5857 5857 5856 5856 5856 5856 5855 5855 5854 5854 5853 5853 5853 5853 5853 5852 5852 5852 5851 5850 5849 5848 5847 5846 5845 5845 5844 5844 5843 5842 5841 5840 5839
5710 5713 5714 5717 5721 5727 5730 5734 5739 5745 5748 5751 5753 5756 5760 5762 5763 5765 5767 5769 5772 5777 5783 5788 5793 5796 5799 5803 5806 5807 5811 5814 5815 5816 5819 5824 5829 5834 5838 5841 5843 5844 5845 5846 5848 5849 5850 5851 5853 5854 5855 5856 5856 5856 5855 5855 5855 5854 5854 5853 5853 5852 5852 5852 5852 5852 5851 5851 5851 5850 5850 5849 5849 5848 5847 5846 5845 5844 5843 5842 5841 5840 5839 5838 5837
5702 5706 5709 5710 5715 5721 5725 5729 5733 5738 5743 5746 5747 5749 5753 5757 5760 5762 5762 5765 5770 5775 5780 5784 5788 5792 5795 5799 5801 5803 5807 5811 5814 5816 5817 5821 5827 5832 5836 5839 5841 5842 5843 5845 5846 5847 5848 5849 5851 5853 5854 5854 5855 5854 5854 5854 5853 5853 5852 5852 5851 5851 5851 5851 5851 5851 5850 5850 5849 5849 5849 5848 5848 5847 5846 5845 5844 5843 5841 5840 5839 5838 5838 5837 5836
5695 5699 5703 5705 5708 5714 5719 5722 5727 5733 5737 5739 5741 5744 5748 5752 5755 5756 5757 5760 5766 5771 5776 5780 5784 5788 5790 5795 5797 5800 5806 5810 5813 5815 5817 5821 5826 5830 5833 5836 5838 5840 5842 5843 5844 5845 5846 5847 5849 5851 5852 5853 5853 5853 5853 5853 5852 5852 5851 5850 5850 5850 5850 5850 5850 5849 5849 5848 5848 5848 5847 5847 5847 5846 5845 5844 5843 5841 5840 5839 5838 5837 5836 5836 5835
5689 5692 5696 5699 5702 5707 5712 5716 5721 5726 5730 5731 5735 5740 5744 5747 5750 5752 5755 5757 5761 5767 5771 5774 5778 5782 5786 5790 5792 5796 5802 5805 5808 5812 5814 5818 5823 5827 5830 5833 5836 5838 5840 5841 5842 5843 5844 5845 5847 5849 5850 5851 5851 5851 5851 5851 5851 5850 5850 5849 5849 5849 5849 5849 5848 5848 5847 5847 5847 5846 5846 5845 5845 5845 5844 5843 5841 5840 5839 5839 5838 5836 5835 5834 5833
5685 5688 5692 5694 5697 5701 5706 5711 5715 5719 5721 5723 5729 5736 5741 5743 5745 5749 5753 5755 5758 5763 5768 5771 5774 5778 5782 5785 5787 5791 5796 5798 5802 5806 5810 5813 5818 5823 5827 5831 5833 5836 5838 5839 5841 5841 5842 5843 5845 5847 5848 5849 5849 5849 5849 5849 5849 5849 5848 5848 5848 5848 5848 5847 5847 5847 5846 5846 5846 5845 5844 5844 5843 5843 5842 5841 5840 5839 5839 5838 5837 5835 5834 5833 5832
5681 5684 5688 5690 5693 5697 5701 5705 5709 5712 5715 5719 5725 5732 5736 5739 5742 5746 5751 5754 5756 5760 5765 5768 5772 5776 5780 5783 5785 5789 5791 5792 5796 5801 5806 5810 5814 5819 5824 5828 5831 5834 5836 5838 5839 5840 5840 5841 5843 5845 5846 5847 5847 5847 5848 5848 5848 5848 5848 5847 5847 5847 5847 5846 5846 5845 5845 5845 5844 5843 5842 5842 5841 5840 5840 5839 5839 5838 5838 5837 5836 5834 5833 5831 5830
5678 5679 5683 5686 5689 5692 5696 5700 5703 5707 5711 5715 5721 5728 5732 5735 5739 5743 5748 5751 5754 5757 5762 5766 5769 5773 5777 5780 5784 5788 5789 5790 5793 5798 5803 5807 5810 5816 5822 5826 5829 5831 5833 5835 5837 5838 5838 5839 5841 5842 5843 5845 5845 5845 5846 5846 5846 5847 5847 5846 5846 5846 5846 5845 5844 5844 5843 5843 5842 5841 5840 5840 5839 5838 5838 5837 5837 5837 5836 5836 5835 5833 5831 5830 5829
5675 5676 5678 5681 5684 5687 5691 5696 5700 5703 5707 5712 5717 5723 5728 5732 5736 5741 5745 5748 5751 5754 5758 5762 5766 5770 5773 5777 5781 5785 5788 5789 5792 5796 5801 5805 5807 5812 5818 5823 5826 5828 5831 5833 5834 5835 5836 5837 5838 5840 5841 5843 5843 5844 5844 5845 5845 5845 5845 5845 5845 5845 5844 5844 5843 5843 5842 5841 5840 5839 5838 5838 5837 5837 5836 5836 5836 5835 5835 5834 5833 5832 5830 5829 5827
5670 5672 5674 5676 5680 5683 5686 5691 5696 5700 5704 5708 5713 5718 5723 5728 5733 5737 5741 5745 5748 5750 5754 5758 5762 5766 5770 5774 5777 5781 5785 5788 5791 5794 5798 5802 5805 5809 5814 5819 5822 5825 5828 5831 5832 5833 5833 5834 5835 5837 5839 5840 5841 5842 5842 5843 5843 5843 5843 5844 5844 5844 5843 5842 5842 5841 5840 5840 5839 5838 5837 5836 5835 5835 5835 5834 5834 5834 5833 5832 5832 5830 5829 5827 5826
5666 5668 5669 5671 5675 5678 5681 5686 5691 5695 5699 5704 5709 5713 5718 5723 5727 5732 5736 5741 5744 5746 5750 5755 5758 5762 5766 5770 5774 5777 5782 5786 5789 5792 5795 5798 5802 5806 5811 5816 5819 5822 5825 5828 5829 5830 5831 5832 5833 5834 5836 5837 5838 5839 5840 5840 5841 5841 5841 5842 5842 5842 5841 5841 5840 5840 5839 5838 5837 5836 5835 5835 5834 5834 5833 5833 5832 5832 5831 5831 5830 5829 5827 5826 5824
5661 5663 5664 5666 5668 5672 5676 5680 5685 5689 5693 5698 5703 5708 5712 5717 5722 5727 5732 5736 5740 5743 5746 5750 5754 5759 5763 5767 5770 5774 5778 5782 5786 5790 5793 5795 5798 5803 5807 5812 5816 5819 5822 5824 5825 5826 5827 5829 5830 5831 5832 5834 5835 5837 5838 5838 5838 5839 5839 5840 5840 5840 5839 5839 5839 5838 5837 5837 5836 5835 5834 5834 5833 5833 5832 5832 5831 5830 5829 5829 5828 5827 5826 5824 5823
5657 5657 5659 5660 5662 5666 5670 5674 5678 5683 5687 5691 5696 5701 5707 5712 5717 5722 5726 5731 5736 5740 5742 5746 5750 5755 5759 5763 5767 5771 5775 5779 5782 5786 5789 5792 5795 5799 5803 5807 5812 5816 5818 5820 5821 5823 5824 5826 5827 5828 5829 5830 5832 5834 5835 5835 5836 5837 5837 5838 5838 5838 5838 5837 5837 5837 5836 5836 5835 5835 5834 5833 5832 5832 5831 5831 5830 5829 5828 5827 5826 5825 5824 5823 5821
5653 5653 5653 5655 5657 5660 5664 5668 5672 5677 5681 5685 5690 5694 5700 5707 5712 5716 5721 5726 5731 5736 5739 5743 5747 5751 5755 5759 5764 5768 5771 5775 5779 5782 5785 5788 5792 5796 5798 5802 5807 5811 5813 5815 5817 5819 5821 5822 5824 5824 5825 5826 5829 5831 5832 5833 5834 5834 5835 5835 5836 5836 5836 5836 5835 5835 5835 5835 5834 5834 5833 5832 5832 5831 5830 5830 5829 5827 5826 5825 5824 5823 5822 5821 5820
5649 5649 5649 5651 5653 5655 5658 5662 5665 5670 5675 5679 5684 5688 5693 5700 5707 5711 5715 5720 5726 5732 5736 5739 5743 5747 5751 5754 5757 5761 5765 5770 5775 5778 5781 5784 5787 5791 5794 5797 5801 5805 5808 5811 5813 5815 5817 5819 5821 5821 5821 5823 5826 5828 5829 5830 5831 5832 5833 5833 5834 5834 5834 5834 5834 5834 5834 5833 5833 5832 5832 5831 5831 5830 5829 5828 5827 5826 5825 5824 5822 5822 5821 5819 5818
5643 5645 5646 5647 5650 5652 5654 5657 5660 5664 5669 5673 5678 5682 5686 5693 5700 5705 5709 5715 5722 5728 5732 5735 5739 5743 5746 5747 5749 5752 5757 5762 5769 5773 5776 5779 5782 5786 5789 5793 5796 5799 5803 5806 5809 5811 5813 5816 5818 5818 5819 5821 5824 5826 5827 5828 5829 5830 5830 5831 5831 5832 5832 5832 5832 5832 5832 5832 5831 5830 5830 5830 5829 5829 5828 5827 5826 5825 5824 5822 5821 5820 5819 5817 5816
5636 5639 5641 5643 5645 5648 5650 5653 5655 5658 5662 5667 5672 5676 5680 5686 5693 5700 5705 5710 5716 5722 5727 5731 5735 5739 5742 5743 5746 5749 5751 5754 5759 5765 5768 5772 5776 5781 5785 5788 5791 5793 5798 5802 5805 5807 5809 5812 5815 5816 5817 5819 5821 5823 5824 5825 5826 5827 5828 5828 5829 5830 5830 5830 5830 5830 5830 5830 5829 5829 5828 5828 5828 5827 5826 5825 5824 5823 5822 5821 5820 5818 5817 5815 5814
5629 5633 5636 5638 5639 5642 5645 5647 5650 5653 5656 5661 5666 5670 5674 5680 5686 5694 5700 5704 5710 5715 5721 5726 5730 5734 5737 5740 5742 5744 5746 5748 5749 5753 5759 5764 5769 5774 5778 5782 5784 5788 5792 5796 5800 5803 5805 5808 5811 5812 5814 5816 5818 5819 5820 5821 5823 5824 5825 5825 5826 5827 5827 5827 5828 5828 5828 5828 5827 5827 5826 5826 5825 5825 5824 5824 5823 5822 5820 5819 5818 5817 5815 5814 5813
5624 5627 5631 5632 5634 5636 5639 5642 5645 5647 5651 5655 5660 5664 5669 5674 5680 5687 5694 5698 5704 5710 5715 5720 5724 5727 5731 5735 5739 5739 5740 5742 5744 5745 5749 5754 5761 5767 5771 5774 5778 5781 5786 5791 5794 5798 5801 5803 5806 5808 5810 5812 5814 5816 5817 5818 5819 5821 5822 5822 5823 5824 5824 5825 5825 5825 5825 5825 5825 5824 5824 5824 5823 5823 5822 5822 5821 5820 5819 5818 5816 5815 5813 5812 5811
5618 5622 5626 5628 5629 5631 5634 5637 5639 5642 5645 5649 5654 5658 5663 5668 5674 5680 5687 5692 5698 5704 5708 5714 5718 5721 5724 5730 5735 5736 5735 5735 5738 5742 5745 5748 5753 5759 5764 5768 5771 5775 5780 5785 5788 5792 5795 5798 5801 5804 5806 5808 5810 5812 5814 5815 5816 5818 5819 5819 5820 5821 5821 5822 5822 5823 5823 5823 5823 5822 5821 5821 5821 5821 5820 5820 5819 5818 5817 5816 5815 5813 5811 5810 5808
5614 5617 5620 5623 5626 5628 5630 5633 5635 5638 5641 5644 5648 5653 5657 5662 5667 5673 5680 5686 5691 5697 5702 5707 5711 5715 5720 5724 5728 5732 5734 5732 5733 5737 5743 5745 5747 5751 5757 5761 5766 5770 5774 5778 5782 5786 5790 5794 5797 5800 5802 5804 5806 5808 5810 5812 5814 5815 5816 5816 5817 5818 5819 5819 5820 5820 5820 5820 5820 5820 5819 5819 5818 5818 5818 5817 5817 5816 5815 5814 5813 5812 5810 5808 5807
5609 5612 5616 5619 5622 5624 5626 5629 5632 5634 5637 5639 5643 5647 5651 5656 5661 5666 5673 5679 5684 5689 5694 5699 5704 5708 5713 5717 5720 5726 5730 5732 5734 5736 5740 5743 5745 5747 5752 5756 5760 5765 5769 5772 5776 5780 5784 5789 5792 5795 5798 5800 5802 5804 5807 5809 5810 5811 5812 5813 5814 5815 5816 5816 5817 5817 5817 5817 5817 5817 5817 5816 5816 5816 5815 5815 5814 5814 5813 5813 5812 5811 5809 5807 5806
5605 5608 5612 5615 5619 5621 5623 5626 5628 5630 5633 5635 5638 5642 5646 5650 5654 5660 5667 5673 5676 5681 5687 5692 5697 5702 5705 5708 5713 5719 5724 5728 5733 5737 5739 5742 5744 5747 5751 5754 5757 5761 5765 5769 5772 5775 5780 5784 5788 5791 5794 5796 5799 5801 5803 5805 5807 5808 5809 5809 5810 5811 5812 5813 5814 5814 5814 5814 5814 5814 5814 5814 5814 5813 5813 5812 5812 5811 5811 5810 5810 5809 5808 5806 5805
5601 5604 5609 5612 5615 5618 5621 5623 5625 5627 5629 5631 5633 5637 5641 5645 5649 5654 5661 5666 5669 5674 5680 5686 5691 5695 5697 5701 5707 5714 5718 5723 5728 5732 5735 5738 5740 5744 5748 5752 5755 5759 5762 5765 5768 5772 5775 5780 5783 5786 5789 5792 5794 5796 5799 5801 5803 5804 5805 5805 5806 5808 5809 5809 5810 5811 5811 5811 5811 5811 5812 5811 5811 5811 5810 5810 5809 5809 5808 5808 5807 5807 5806 5804 5803
5598 5602 5607 5610 5613 5616 5618 5619 5621 5623 5625 5627 5629 5632 5636 5640 5644 5649 5654 5660 5663 5666 5672 5679 5684 5688 5691 5694 5701 5708 5713 5719 5723 5726 5729 5732 5735 5739 5743 5747 5750 5753 5757 5761 5764 5767 5771 5774 5778 5781 5784 5787 5789 5792 5795 5797 5799 5800 5801 5802 5803 5804 5805 5806 5807 5808 5808 5808 5808 5809 5809 5809 5808 5808 5808 5807 5807 5806 5806 5805 5805 5804 5803 5803 5802
5598 5602 5606 5609 5611 5613 5615 5616 5617 5618 5621 5623 5624 5627 5630 5635 5639 5644 5648 5653 5656 5660 5665 5671 5678 5682 5685 5689 5696 5704 5708 5713 5718 5721 5723 5726 5730 5734 5738 5742 5745 5747 5750 5754 5758 5762 5765 5768 5772 5775 5778 5781 5783 5787 5790 5792 5794 5796 5798 5799 5799 5801 5802 5802 5803 5804 5805 5805 5805 5806 5806 5806 5806 5806 5805 5805 5805 5804 5803 5803 5802 5802 5801 5800 5800
5600 5603 5605 5607 5609 5610 5611 5612 5613 5614 5616 5618 5620 5622 5625 5629 5634 5639 5643 5647 5650 5654 5658 5664 5671 5676 5680 5685 5692 5698 5702 5706 5711 5715 5718 5721 5725 5728 5732 5736 5740 5743 5746 5749 5752 5756 5759 5761 5765 5768 5771 5774 5778 5781 5785 5788 5790 5792 5794 5795 5796 5797 5798 5798 5799 5800 5801 5802 5802 5802 5802 5803 5803 5803 5803 5803 5802 5802 5801 5800 5800 5799 5798 5798 5798
5601 5602 5604 5605 5606 5607 5608 5608 5609 5611 5612 5614 5616 5618 5620 5625 5630 5634 5638 5642 5645 5648 5652 5657 5664 5671 5675 5680 5687 5693 5696 5700 5705 5710 5713 5716 5720 5723 5725 5728 5732 5737 5741 5744 5746 5748 5751 5754 5757 5760 5763 5766 5771 5775 5779 5782 5784 5787 5789 5791 5792 5793 5794 5794 5795 5796 5798 5798 5799 5799 5799 5799 5800 5800 5800 5800 5800 5800 5799 5798 5797 5797 5796 5795 5795
5600 5601 5602 5603 5603 5604 5605 5605 5606 5607 5609 5610 5611 5613 5616 5620 5625 5629 5634 5637 5640 5644 5648 5652 5658 5665 5670 5675 5681 5686 5690 5694 5699 5704 5707 5710 5714 5717 5720 5723 5727 5732 5736 5739 5741 5744 5746 5748 5750 5752 5754 5757 5762 5768 5772 5775 5778 5780 5783 5786 5787 5788 5790 5790 5791 5792 5794 5794 5795 5795 5796 5796 5797 5797 5797 5797 5797 5797 5797 5796 5795 5794 5793 5793 5793
5598 5598 5599 5600 5600 5601 5601 5602 5603 5604 5605 5606 5607 5609 5612 5616 5620 5625 5629 5633 5636 5639 5643 5648 5653 5658 5664 5669 5673 5678 5683 5688 5693 5698 5700 5703 5707 5712 5715 5718 5722 5726 5729 5733 5736 5740 5742 5744 5746 5746 5747 5750 5754 5758 5763 5767 5770 5773 5776 5780 5781 5783 5784 5786 5787 5788 5789 5790 5791 5792 5792 5793 5793 5793 5794 5794 5795 5795 5795 5794 5793 5792 5791 5790 5790
5594 5594 5595 5595 5596 5596 5597 5598 5599 5600 5601 5602 5604 5606 5608 5611 5616 5620 5624 5629 5632 5635 5639 5644 5648 5652 5658 5663 5666 5671 5676 5681 5687 5691 5694 5697 5702 5706 5710 5713 5716 5719 5722 5724 5728 5732 5736 5740 5743 5744 5745 5747 5749 5751 5754 5758 5762 5765 5769 5772 5774 5776 5779 5780 5781 5783 5785 5786 5788 5788 5789 5789 5789 5790 5790 5791 5791 5792 5792 5792 5792 5790 5788 5787 5787
5590 5590 5590 5590 5590 5591 5592 5593 5594 5596 5597 5599 5600 5602 5604 5607 5612 5616 5621 5625 5629 5632 5636 5641 5644 5647 5653 5658 5662 5665 5670 5675 5680 5685 5688 5692 5697 5700 5704 5707 5709 5712 5716 5718 5721 5724 5728 5733 5738 5741 5743 5746 5747 5748 5749 5751 5754 5757 5760 5764 5767 5770 5772 5774 5776 5778 5781 5782 5784 5785 5785 5786 5786 5786 5786 5787 5788 5788 5789 5789 5789 5788 5786 5785 5785
5586 5586 5586 5586 5586 5586 5586 5586 5588 5591 5593 5595 5597 5598 5601 5604 5608 5612 5617 5621 5625 5629 5633 5637 5640 5643 5648 5653 5657 5661 5664 5669 5674 5679 5683 5687 5690 5694 5698 5701 5704 5706 5710 5713 5716 5719 5723 5727 5730 5734 5739 5743 5746 5746 5746 5746 5747 5749 5752 5757 5761 5764 5766 5769 5771 5773 5776 5778 5779 5781 5781 5782 5782 5782 5783 5783 5784 5784 5785 5786 5787 5785 5783 5782 5782
5583 5583 5583 5582 5582 5582 5582 5582 5583 5586 5588 5590 5593 5595 5597 5600 5604 5608 5612 5616 5620 5625 5629 5633 5636 5640 5644 5648 5652 5656 5660 5664 5668 5673 5678 5681 5685 5688 5691 5695 5698 5701 5704 5708 5711 5716 5720 5723 5725 5728 5732 5736 5740 5742 5743 5745 5746 5747 5749 5753 5755 5758 5761 5764 5766 5769 5771 5773 5775 5776 5777 5778 5778 5779 5779 5779 5780 5780 5781 5783 5783 5782 5781 5780 5779
5580 5580 5580 5579 5579 5579 5579 5579 5579 5582 5584 5587 5589 5591 5594 5597 5601 5605 5608 5612 5616 5620 5624 5628 5632 5636 5640 5644 5648 5651 5655 5658 5663 5667 5672 5676 5680 5683 5686 5689 5692 5695 5699 5703 5707 5713 5718 5721 5722 5724 5726 5729 5733 5736 5739 5743 5746 5748 5749 5750 5752 5755 5758 5760 5762 5764 5766 5768 5771 5773 5773 5774 5774 5775 5775 5775 5776 5776 5777 5779 5779 5779 5778 5777 5776
5578 5578 5578 5577 5576 5576 5576 5576 5577 5579 5581 5583 5586 5588 5590 5593 5597 5600 5604 5608 5611 5614 5618 5622 5627 5631 5635 5639 5642 5646 5650 5653 5657 5662 5666 5670 5675 5678 5682 5685 5688 5691 5695 5699 5703 5708 5712 5716 5718 5720 5722 5725 5729 5732 5735 5738 5743 5745 5746 5747 5750 5752 5755 5756 5758 5760 5762 5765 5767 5769 5770 5770 5770 5770 5770 5771 5771 5772 5773 5774 5775 5775 5775 5774 5773
5576 5575 5575 5574 5574 5573 5574 5574 5575 5577 5579 5581 5583 5585 5587 5589 5592 5596 5599 5602 5606 5609 5612 5616 5620 5624 5629 5633 5636 5641 5644 5648 5651 5655 5659 5664 5668 5673 5676 5680 5684 5687 5690 5695 5698 5702 5707 5712 5715 5716 5718 5722 5726 5728 5729 5731 5735 5738 5740 5742 5744 5746 5748 5751 5753 5755 5758 5760 5762 5764 5765 5766 5766 5766 5766 5766 5767 5767 5768 5770 5770 5771 5772 5771 5769
5575 5574 5573 5572 5572 5572 5572 5573 5573 5575 5577 5578 5580 5582 5584 5586 5588 5591 5595 5598 5601 5605 5608 5612 5615 5619 5624 5628 5631 5635 5639 5643 5646 5649 5653 5657 5661 5666 5670 5674 5678 5681 5685 5689 5693 5697 5702 5707 5710 5711 5714 5718 5722 5724 5725 5726 5729 5732 5734 5737 5739 5740 5743 5746 5749 5751 5753 5756 5757 5759 5760 5761 5762 5762 5761 5762 5762 5762 5763 5764 5765 5767 5768 5767 5765
5574 5573 5571 5571 5571 5572 5572 5572 5572 5573 5575 5577 5578 5579 5581 5583 5585 5588 5591 5594 5597 5601 5604 5608 5611 5615 5618 5622 5626 5630 5634 5638 5641 5644 5647 5650 5654 5658 5663 5667 5672 5675 5679 5683 5687 5691 5697 5701 5704 5706 5709 5713 5717 5720 5721 5722 5724 5727 5730 5732 5734 5736 5739 5742 5744 5745 5748 5750 5752 5753 5755 5756 5756 5756 5757 5757 5758 5758 5758 5759 5761 5763 5763 5762 5761
5574 5572 5570 5570 5571 5572 5572 5572 5572 5572 5573 5574 5576 5577 5579 5580 5582 5584 5587 5590 5593 5596 5599 5603 5606 5610 5613 5617 5620 5624 5627 5631 5635 5638 5641 5644 5647 5651 5656 5661 5665 5669 5673 5677 5681 5684 5689 5695 5698 5700 5703 5707 5711 5714 5716 5717 5719 5721 5724 5727 5729 5732 5735 5738 5739 5739 5741 5745 5747 5749 5749 5750 5750 5751 5752 5753 5753 5753 5753 5755 5757 5758 5757 5757 5758
5574 5572 5570 5570 5570 5571 5572 5572 5572 5572 5572 5572 5573 5575 5576 5578 5579 5581 5583 5586 5589 5592 5595 5598 5602 5605 5608 5612 5615 5618 5621 5625 5628 5632 5636 5639 5642 5645 5649 5653 5658 5662 5666 5671 5675 5678 5682 5687 5692 5695 5698 5701 5705 5708 5711 5713 5715 5716 5718 5721 5724 5727 5730 5732 5733 5734 5737 5739 5742 5744 5744 5745 5745 5745 5747 5748 5748 5748 5748 5750 5752 5752 5752 5753 5753
5575 5573 5571 5570 5570 5571 5571 5571 5571 5571 5571 5571 5571 5572 5573 5575 5576 5578 5580 5583 5586 5588 5591 5594 5597 5600 5603 5607 5610 5612 5616 5619 5622 5625 5629 5634 5637 5639 5642 5646 5651 5656 5660 5665 5669 5672 5675 5681 5685 5689 5692 5696 5699 5703 5705 5708 5711 5713 5714 5716 5718 5721 5724 5726 5727 5730 5732 5734 5737 5739 5740 5739 5739 5739 5742 5743 5742 5742 5744 5745 5746 5746 5747 5748 5749
5577 5574 5572 5571 5571 5570 5570 5570 5570 5570 5570 5570 5570 5570 5571 5572 5573 5575 5577 5579 5581 5584 5587 5590 5593 5595 5598 5601 5604 5607 5610 5614 5617 5620 5623 5628 5632 5635 5637 5640 5644 5648 5653 5658 5663 5666 5670 5674 5679 5683 5687 5690 5693 5696 5699 5703 5706 5708 5709 5711 5712 5715 5718 5720 5722 5725 5727 5729 5731 5733 5733 5732 5732 5733 5734 5735 5736 5738 5740 5740 5740 5741 5742 5744 5744
5578 5576 5574 5573 5572 5571 5570 5568 5568 5568 5569 5569 5569 5569 5569 5569 5570 5571 5573 5575 5577 5579 5582 5584 5587 5590 5592 5595 5598 5602 5606 5609 5612 5614 5618 5622 5626 5629 5632 5634 5637 5642 5647 5652 5657 5660 5664 5668 5673 5677 5681 5684 5686 5689 5693 5696 5699 5702 5703 5705 5707 5710 5713 5715 5717 5718 5719 5720 5722 5724 5725 5725 5725 5725 5726 5728 5731 5733 5734 5734 5734 5736 5738 5739 5740
5578 5576 5575 5574 5573 5572 5571 5569 5567 5566 5566 5566 5566 5566 5567 5567 5567 5568 5569 5570 5572 5573 5575 5578 5580 5583 5586 5589 5592 5596 5599 5603 5606 5609 5613 5617 5620 5624 5627 5629 5632 5636 5641 5646 5650 5654 5657 5662 5666 5671 5675 5678 5680 5683 5686 5690 5693 5695 5697 5699 5702 5705 5707 5708 5709 5710 5711 5713 5714 5716 5717 5716 5715 5716 5718 5721 5723 5725 5727 5728 5730 5731 5733 5734 5735
5579 5577 5575 5574 5572 5571 5571 5569 5568 5566 5565 5564 5563 5563 5564 5564 5564 5565 5565 5566 5567 5568 5569 5571 5573 5576 5579 5581 5584 5588 5592 5596 5600 5604 5608 5612 5616 5619 5622 5625 5628 5631 5635 5639 5643 5647 5651 5655 5659 5663 5667 5671 5674 5678 5681 5684 5686 5689 5691 5694 5697 5699 5701 5701 5702 5704 5705 5706 5706 5707 5707 5706 5706 5708 5711 5714 5715 5717 5720 5723 5725 5726 5727 5728 5729
5578 5577 5575 5573 5572 5571 5570 5568 5567 5566 5564 5563 5561 5560 5561 5561 5561 5562 5562 5562 5562 5563 5564 5565 5567 5569 5571 5574 5577 5581 5585 5589 5594 5598 5603 5607 5611 5614 5617 5620 5623 5626 5629 5632 5636 5640 5644 5647 5650 5654 5658 5663 5668 5673 5675 5677 5679 5682 5685 5688 5690 5692 5693 5695 5696 5697 5697 5696 5696 5697 5698 5698 5699 5702 5705 5707 5708 5710 5713 5716 5719 5720 5721 5721 5722
5577 5575 5574 5572 5571 5570 5569 5567 5566 5564 5563 5562 5560 5559 5559 5559 5559 5558 5558 5558 5558 5558 5559 5560 5562 5563 5565 5568 5572 5576 5581 5585 5589 5594 5598 5602 5606 5608 5611 5614 5618 5620 5623 5625 5628 5633 5637 5639 5642 5647 5652 5656 5662 5666 5668 5669 5672 5675 5678 5680 5682 5683 5685 5687 5688 5688 5687 5687 5687 5689 5691 5693 5695 5697 5700 5701 5702 5704 5706 5709 5712 5714 5715 5715 5716
5576 5574 5573 5572 5570 5569 5567 5566 5565 5563 5562 5560 5559 5557 5556 5556 5556 5555 5554 5553 5554 5555 5556 5556 5558 5559 5561 5564 5568 5572 5576 5580 5584 5589 5592 5596 5600 5603 5606 5609 5612 5615 5616 5619 5622 5626 5629 5632 5636 5641 5646 5650 5655 5658 5659 5662 5666 5668 5670 5672 5674 5676 5678 5679 5681 5680 5679 5680 5681 5682 5683 5685 5688 5690 5692 5693 5695 5697 5700 5703 5705 5708 5709 5709 5710